sat.trackr.live / text

‹ back to catalog

LEMUR-2-ESPERANZA

NORAD 63352 · 2025-061B

PAYLOAD ACTIVE UNKNOWN

§ Identity

Operator
Country
US
Launch date
2025-03-26
Launch site
RLLB
Launch vehicle
Mass (kg)
RCS (m²)

Purposes: earth_obs

External: N2YO · Heavens-Above · Gunter

§ Orbital elements

Epoch: 2026-05-24T22:13:00.250176Z

Period
95.15 min
Inclination
97.5632°
Eccentricity
0.0018083
Mean motion
15.13376393 rev/d
Perigee alt
513.4 km
Apogee alt
538.4 km
Semi-major
6,904.0 km
B*
1.9209e-4
RAAN
120.5507°
Arg perigee
350.7649°
Mean anomaly
9.3247°
Rev number
6,407

§ Raw data

LEMUR-2-ESPERANZA1 63352U 25061B   26144.92569734  .00003372  00000+0  19209-3 0  99932 63352  97.5632 120.5507 0018083 350.7649   9.3247 15.13376393 64070

JSON: /api/v1/satellites/63352 · /tle

For live sub-satellite position, see the globe view (requires WebGL).

§ Visibility from observer

Set your observer location to see the next 7 days of passes ≥ 10°. The values pass through the URL so the page stays shareable.

No JS? Fill the form by hand. The geolocation button needs JavaScript.